星链-3136 (STARLINK-3136 )

导读

STARLINK-3136是美国太空探索技术公司(SpaceX)星链星座的组网卫星,于2021年11月13日发射入轨,属于星链互联网卫星项目的组成部分。星链旨在构建全球卫星互联网星座,该卫星承担低轨道通信服务任务,为全球偏远地区等提供互联网接入支持,是SpaceX大规模部署低轨卫星通信网络的一员。

基本信息
目录编号:
49443
目录名称:
STARLINK-3136
国际标识:
2021-104AM
轨道中心:
EARTH
卫星名称:
星链-3136
卫星全名:
星链-3136 (STARLINK-3136 )
卫星状态:
在轨 (已飞行1678 天)
发射日期:
2021-11-13 UTC
国别 :
美国 (US)
星等 :
--
轨道信息
数据来源 国际轨道数据 AOE轨道数据
星历时间 2026-06-17T10:46:00+0800
1天前
查看轨道信息
2026-06-17T02:00:00+0800
1天前
查看轨道信息
半长轴 6911.631km 6911.714km
偏心率 0.0002823 0.0004167
轨道倾角 53.217° 53.216°
近地点辐角 73.850° 52.732°
升交点赤经 122.329° 123.970°
平近点角 286.281° 119.496°
近地点 531.542km 530.696km
远地点 535.446km 536.458km
周期 95.308分钟 95.310分钟
每日圈数 15.108869 15.108597
详细信息
固有亮度:
5
最大亮度:
2.5
卫星平台:
Starlink v1.5
覆盖范围:
全球
运营商:
太空探索技术公司
运营商所在国:
美国
制造商(研发单位):
太空探索技术公司
制造商所在国:
美国
使用方式:
暂无
卫星简介
星链(Starlink)计划是由太空探索技术公司(SpaceX)提出的一个巨型低轨卫星互联网星座项目,计划在2019年至2024年间在太空搭建由约1.2万颗卫星组成的“星链”网络,其中1584颗将部署在地球上空550千米处的近地轨道,并从2020年开始工作。该卫星仍在工作。
2D轨道图
3D轨道图
轨道高度分析图
轨道倾角分析图
轨道综合分析图
查看轨道综合分析图